This is the latest recevied weather packets stored in our database for station/object F4MLU-13. If no packets are shown the sender has not sent any weather packets the latest 10 day(s).
| Time | Temp. | Humidity | Pressure | Rain* | Wind** | Luminosity | Snow |
|---|---|---|---|---|---|---|---|
| 1777453244 | 16.67° C | 86% | - | 0 mm | - | - | - |
| 1777451444 | 15° C | 91% | - | 0 mm | - | - | - |
| 1777447864 | 13.89° C | 94% | - | 0 mm | - | - | - |
| 1777444844 | 13.33° C | 98% | - | 0 mm | - | - | - |
| 1777441844 | 12.78° C | 99% | - | 0 mm | - | - | - |
| 1777432845 | 12.78° C | 99% | - | 0 mm | - | - | - |
| 1777432265 | 12.78° C | 99% | - | 0 mm | - | - | - |
| 1777431085 | 12.78° C | 99% | - | 0 mm | - | - | - |
| 1777428645 | 12.78° C | 99% | - | 0 mm | - | - | - |
| 1777423245 | 12.22° C | 99% | - | 0 mm | - | - | - |
| 1777419665 | 11.67° C | 99% | - | 0 mm | - | - | - |
| 1777417845 | 11.67° C | 99% | - | 0 mm | - | - | - |
| 1777417265 | 11.11° C | 99% | - | 0 mm | - | - | - |
| 1777416645 | 11.67° C | 99% | - | 0 mm | - | - | - |
| 1777415445 | 11.67° C | 99% | - | 0 mm | - | - | - |
| 1777414875 | 11.67° C | 99% | - | 0 mm | - | - | - |
| 1777412475 | 11.67° C | 99% | - | 0 mm | - | - | - |
| 1777411245 | 12.22° C | 99% | - | 0 mm | - | - | - |
| 1777409446 | 12.78° C | 99% | - | 0 mm | - | - | - |
| 1777400146 | 15° C | 96% | - | 2.03 mm | - | - | - |
| 1777396546 | 15° C | 96% | - | 32 mm | - | - | - |
| 1777395946 | 15° C | 96% | - | 38.1 mm | - | - | - |
| 1777391146 | 18.89° C | 86% | - | 6.1 mm | - | - | - |
| 1777388747 | 20.56° C | 77% | - | 0 mm | - | - | - |
| 1777385746 | 21.67° C | 77% | - | 0 mm | - | - | - |
* Rain latest hour (hover to see other rain measurements)
** Current wind speed in m/s (hover to see current wind gust speed)